Weather in Primorsky

Russia / Primorsky Krai     43°06′13″N   131°35′43″E
temp.,
°C
wind,
m/s
gust,
m/s
humid.,
%
clouds,
%
prec.,
mm/h
press.,
hPa
HPBL,
m
11 may, tue
tue1101:00+7nne229193 0.0 101511
04:00+6n2294100 0.0 101434
07:00+6n22913 0.0 101649
10:00+11ne23680 0.0 1017526
13:00+11ese346851 0.0 1017523
16:00+12sse226213 0.0 1017525
19:00+12sse23668 0.0 1017151
22:00+7se479476 0.0 1020272
12 may, wed
wed1201:00+6se479579 0.0 1021328
04:00+6se479578 0.0 1020334
07:00+6se489498 0.0 1020432
10:00+7sse51091100 0.0 1019511
13:00+7se61191100 0.0 1018476
16:00+7sse5993100 0.1 1017360
19:00+7se3798100 1.4 1016266
22:00+7se4799100 3.4 1017222
13 may, thu
thu1301:00+7se359991 0.1 1017140
04:00+7se249981 0.1 1016131
07:00+7se229886 0.0 101785
10:00+9se2294100 0.0 1016204
13:00+10se2391100 0.0 1016211
16:00+10sse2388100 0.0 1015191
19:00+9sse2293100 0.0 101482
22:00+8ssw1294100 0.0 101513
14 may, fri
fri1401:00+8wsw1193100 0.0 101410
04:00+8nw1193100 0.0 101410
07:00+9nw0190100 0.0 101416
10:00+12sse237496 0.0 1014298
13:00+12sse4571100 0.0 1013373
16:00+12s4675100 0.0 1012302
19:00+10s2490100 0.1 101292
22:00+10sse1293100 0.1 101358
15 may, sat
sat1501:00+9sse2499100 0.0 101195
04:00+9se1299100 0.0 101056
07:00+8se1299100 0.0 101074
10:00+10se1296100 0.1 1009123
13:00+12se238976 0.0 1008228
16:00+11se2393100 0.1 1006191
19:00+12n2399100 2.4 100668
22:00+11nnw3389100 1.6 100850